Location: Great Malvern
(52.1167°N, 2.3167°W)
Time: 15:02:58
(UTC+00:00)

NOSS 2-2 (E) - Pass Details

Date: 18 September 2020
Orbit: 469 x 1737 km, 63.3° (Epoch: 19 October)

Event Time Altitude Azimuth Distance (km) Brightness Sun altitude
Rises 19:11:54 0° 198° (SSW) 2,499 6.7 -9.3°
Reaches altitude 10° 19:14:04 10° 188° (S) 1,636 5.7 -9.6°
Maximum altitude 19:17:15 32° 123° (ESE) 872 3.8 -10.1°
Drops below altitude 10° 19:20:51 10° 59° (ENE) 1,857 5.6 -10.6°
Sets 19:23:27 0° 50° (NE) 2,907 6.7 -11.0°
